Time,TemperatureF,DewpointF,PressureIn,WindDirection,WindDirectionDegrees,WindSpeedMPH,WindSpeedGustMPH,Humidity,HourlyPrecipIn,Conditions,Clouds,dailyrainin,SoftwareType,DateUTC
2013-02-13 00:00:00,35.6,21.5,29.49,North,0,0.0,0.0,56,0.00,,,0.00,WUHU216HW,2013-02-13 05:00:00,
2013-02-13 00:05:00,35.6,21.5,29.49,North,0,0.0,0.0,56,0.00,,,0.00,WUHU216HW,2013-02-13 05:05:00,
2013-02-13 00:30:00,34.9,22.1,29.50,SSW,203,0.7,0.7,59,0.00,,,0.00,WUHU216HW,2013-02-13 05:30:00,
2013-02-13 00:35:00,34.9,22.1,29.50,SSW,203,0.7,0.7,59,0.00,,,0.00,WUHU216HW,2013-02-13 05:35:00,
2013-02-13 01:00:00,33.5,20.3,29.50,WSW,248,0.4,0.4,58,0.00,,,0.00,WUHU216HW,2013-02-13 06:00:00,
2013-02-13 01:05:00,33.5,20.3,29.50,WSW,248,0.4,0.4,58,0.00,,,0.00,WUHU216HW,2013-02-13 06:05:00,
2013-02-13 01:30:00,32.2,20.4,29.49,SE,135,1.1,1.1,61,0.00,,,0.00,WUHU216HW,2013-02-13 06:30:00,
2013-02-13 01:35:00,32.2,20.4,29.49,SE,135,1.1,1.1,61,0.00,,,0.00,WUHU216HW,2013-02-13 06:35:00,
2013-02-13 02:00:00,30.8,19.3,29.47,WSW,248,0.4,0.4,62,0.00,,,0.00,WUHU216HW,2013-02-13 07:00:00,
2013-02-13 02:05:00,30.8,19.3,29.47,WSW,248,0.4,0.4,62,0.00,,,0.00,WUHU216HW,2013-02-13 07:05:00,
2013-02-13 02:30:00,29.9,19.4,29.47,WSW,248,0.4,0.4,65,0.00,,,0.00,WUHU216HW,2013-02-13 07:30:00,
2013-02-13 02:35:00,29.9,19.4,29.47,WSW,248,0.4,0.4,65,0.00,,,0.00,WUHU216HW,2013-02-13 07:35:00,
2013-02-13 03:00:00,29.2,18.8,29.46,SW,225,0.0,0.0,65,0.00,,,0.00,WUHU216HW,2013-02-13 08:00:00,
2013-02-13 03:05:00,29.2,18.8,29.46,SW,225,0.0,0.0,65,0.00,,,0.00,WUHU216HW,2013-02-13 08:05:00,
2013-02-13 03:30:00,28.6,18.7,29.45,SE,135,0.0,0.0,66,0.00,,,0.00,WUHU216HW,2013-02-13 08:30:00,
2013-02-13 03:35:00,28.6,18.7,29.45,SE,135,0.0,0.0,66,0.00,,,0.00,WUHU216HW,2013-02-13 08:35:00,
2013-02-13 04:00:00,28.1,18.2,29.44,SW,225,0.0,0.0,66,0.00,,,0.00,WUHU216HW,2013-02-13 09:00:00,
2013-02-13 04:05:00,28.1,18.2,29.44,SW,225,0.0,0.0,66,0.00,,,0.00,WUHU216HW,2013-02-13 09:05:00,
2013-02-13 04:30:00,27.7,18.5,29.44,SW,225,0.0,0.0,68,0.00,,,0.00,WUHU216HW,2013-02-13 09:30:00,
2013-02-13 04:35:00,27.7,18.5,29.44,SW,225,0.0,0.0,68,0.00,,,0.00,WUHU216HW,2013-02-13 09:35:00,
2013-02-13 05:00:00,27.7,19.3,29.44,SSE,158,0.7,0.7,70,0.00,,,0.00,WUHU216HW,2013-02-13 10:00:00,
2013-02-13 05:05:00,27.7,19.3,29.44,SSE,158,0.7,0.7,70,0.00,,,0.00,WUHU216HW,2013-02-13 10:05:00,
2013-02-13 05:30:00,27.4,18.9,29.44,SSW,203,0.0,0.0,70,0.00,,,0.00,WUHU216HW,2013-02-13 10:30:00,
2013-02-13 05:35:00,27.4,18.9,29.44,SSW,203,0.0,0.0,70,0.00,,,0.00,WUHU216HW,2013-02-13 10:35:00,
2013-02-13 06:00:00,26.8,18.6,29.44,SSE,158,0.0,0.0,71,0.00,,,0.00,WUHU216HW,2013-02-13 11:00:00,
2013-02-13 06:05:00,26.8,18.6,29.44,SSE,158,0.0,0.0,71,0.00,,,0.00,WUHU216HW,2013-02-13 11:05:00,
2013-02-13 06:30:00,27.0,19.2,29.44,SW,225,0.0,0.0,72,0.00,,,0.00,WUHU216HW,2013-02-13 11:30:00,
2013-02-13 06:35:00,27.0,19.2,29.44,SW,225,0.0,0.0,72,0.00,,,0.00,WUHU216HW,2013-02-13 11:35:00,
2013-02-13 07:00:00,27.9,20.3,29.42,SW,225,0.4,0.4,73,0.00,,,0.00,WUHU216HW,2013-02-13 12:00:00,
2013-02-13 07:05:00,27.9,20.3,29.42,SW,225,0.4,0.4,73,0.00,,,0.00,WUHU216HW,2013-02-13 12:05:00,
2013-02-13 07:30:00,28.4,20.9,29.42,NNW,338,0.4,0.4,73,0.00,,,0.00,WUHU216HW,2013-02-13 12:30:00,
2013-02-13 07:35:00,28.4,20.9,29.42,NNW,338,0.4,0.4,73,0.00,,,0.00,WUHU216HW,2013-02-13 12:35:00,
2013-02-13 08:00:00,29.9,22.6,29.43,SSW,203,0.2,0.2,74,0.00,,,0.00,WUHU216HW,2013-02-13 13:00:00,
2013-02-13 08:05:00,29.9,22.6,29.43,SSW,203,0.2,0.2,74,0.00,,,0.00,WUHU216HW,2013-02-13 13:05:00,
2013-02-13 08:30:00,32.0,24.7,29.43,SSW,203,0.0,0.0,74,0.00,,,0.00,WUHU216HW,2013-02-13 13:30:00,
2013-02-13 08:35:00,32.0,24.7,29.43,SSW,203,0.0,0.0,74,0.00,,,0.00,WUHU216HW,2013-02-13 13:35:00,
2013-02-13 09:00:00,34.0,25.2,29.42,SSE,158,0.2,0.2,70,0.00,,,0.00,WUHU216HW,2013-02-13 14:00:00,
2013-02-13 09:05:00,34.0,25.2,29.42,SSE,158,0.2,0.2,70,0.00,,,0.00,WUHU216HW,2013-02-13 14:05:00,
2013-02-13 09:30:00,36.4,27.2,29.41,WNW,293,0.2,0.2,69,0.00,,,0.00,WUHU216HW,2013-02-13 14:30:00,
2013-02-13 09:35:00,36.4,27.2,29.41,WNW,293,0.2,0.2,69,0.00,,,0.00,WUHU216HW,2013-02-13 14:35:00,
2013-02-13 10:00:00,38.7,27.9,29.40,SE,135,0.9,0.9,65,0.00,,,0.00,WUHU216HW,2013-02-13 15:00:00,
2013-02-13 10:05:00,38.7,27.9,29.40,SE,135,0.9,0.9,65,0.00,,,0.00,WUHU216HW,2013-02-13 15:05:00,
2013-02-13 10:30:00,40.3,28.7,29.38,North,0,0.4,0.4,63,0.00,,,0.00,WUHU216HW,2013-02-13 15:30:00,
2013-02-13 10:35:00,40.3,28.7,29.38,North,0,0.4,0.4,63,0.00,,,0.00,WUHU216HW,2013-02-13 15:35:00,
2013-02-13 11:00:00,40.5,28.4,29.38,NNW,338,0.4,0.4,62,0.00,,,0.00,WUHU216HW,2013-02-13 16:00:00,
2013-02-13 11:05:00,40.5,28.4,29.38,NNW,338,0.4,0.4,62,0.00,,,0.00,WUHU216HW,2013-02-13 16:05:00,
2013-02-13 11:30:00,46.4,32.9,29.35,ESE,113,0.4,0.4,59,0.00,,,0.00,WUHU216HW,2013-02-13 16:30:00,
2013-02-13 11:35:00,46.4,32.9,29.35,ESE,113,0.4,0.4,59,0.00,,,0.00,WUHU216HW,2013-02-13 16:35:00,
2013-02-13 12:00:00,48.4,32.5,29.33,WNW,293,3.1,3.1,54,0.00,,,0.00,WUHU216HW,2013-02-13 17:00:00,
2013-02-13 12:05:00,48.4,32.5,29.33,WNW,293,3.1,3.1,54,0.00,,,0.00,WUHU216HW,2013-02-13 17:05:00,
2013-02-13 12:30:00,46.1,30.7,29.33,NNW,338,0.0,0.0,55,0.00,,,0.00,WUHU216HW,2013-02-13 17:30:00,
2013-02-13 12:35:00,46.1,30.7,29.33,NNW,338,0.0,0.0,55,0.00,,,0.00,WUHU216HW,2013-02-13 17:35:00,
2013-02-13 13:00:00,44.3,29.1,29.32,SE,135,0.0,0.0,55,0.00,,,0.00,WUHU216HW,2013-02-13 18:00:00,
2013-02-13 13:05:00,44.3,29.1,29.32,SE,135,0.0,0.0,55,0.00,,,0.00,WUHU216HW,2013-02-13 18:05:00,
2013-02-13 13:30:00,44.3,29.5,29.30,ESE,113,0.0,0.0,56,0.00,,,0.00,WUHU216HW,2013-02-13 18:30:00,
2013-02-13 13:35:00,44.3,29.5,29.30,ESE,113,0.0,0.0,56,0.00,,,0.00,WUHU216HW,2013-02-13 18:35:00,
2013-02-13 14:00:00,44.8,30.5,29.27,ENE,68,1.1,1.1,57,0.00,,,0.00,WUHU216HW,2013-02-13 19:00:00,
2013-02-13 14:05:00,44.8,30.5,29.27,ENE,68,1.1,1.1,57,0.00,,,0.00,WUHU216HW,2013-02-13 19:05:00,
2013-02-13 14:30:00,45.4,31.0,29.25,East,90,2.9,2.9,57,0.00,,,0.00,WUHU216HW,2013-02-13 19:30:00,
2013-02-13 14:35:00,45.4,31.0,29.25,East,90,2.9,2.9,57,0.00,,,0.00,WUHU216HW,2013-02-13 19:35:00,
2013-02-13 15:00:00,44.1,29.8,29.24,East,90,1.1,1.1,57,0.00,,,0.00,WUHU216HW,2013-02-13 20:00:00,
2013-02-13 15:05:00,44.1,29.8,29.24,East,90,1.1,1.1,57,0.00,,,0.00,WUHU216HW,2013-02-13 20:05:00,
2013-02-13 15:30:00,43.0,29.2,29.24,NE,45,2.5,2.5,58,0.00,,,0.00,WUHU216HW,2013-02-13 20:30:00,
2013-02-13 15:35:00,43.0,29.2,29.24,NE,45,2.5,2.5,58,0.00,,,0.00,WUHU216HW,2013-02-13 20:35:00,
2013-02-13 16:00:00,42.1,29.3,29.24,NNE,23,1.8,1.8,60,0.00,,,0.00,WUHU216HW,2013-02-13 21:00:00,
2013-02-13 16:05:00,42.1,29.3,29.24,NNE,23,1.8,1.8,60,0.00,,,0.00,WUHU216HW,2013-02-13 21:05:00,
2013-02-13 16:30:00,41.2,29.2,29.23,NNE,23,2.5,2.5,62,0.00,,,0.00,WUHU216HW,2013-02-13 21:30:00,
2013-02-13 16:35:00,41.2,29.2,29.23,NNE,23,2.5,2.5,62,0.00,,,0.00,WUHU216HW,2013-02-13 21:35:00,
2013-02-13 17:00:00,38.7,29.0,29.23,ENE,68,1.3,1.3,68,0.00,,,0.00,WUHU216HW,2013-02-13 22:00:00,
2013-02-13 17:05:00,38.7,29.0,29.23,ENE,68,1.3,1.3,68,0.00,,,0.00,WUHU216HW,2013-02-13 22:05:00,
2013-02-13 17:30:00,37.4,29.0,29.24,North,0,0.0,0.0,71,0.00,,,0.00,WUHU216HW,2013-02-13 22:30:00,
2013-02-13 17:35:00,37.4,29.0,29.24,North,0,0.0,0.0,71,0.00,,,0.00,WUHU216HW,2013-02-13 22:35:00,
2013-02-13 18:00:00,36.4,28.5,29.25,WNW,293,0.4,0.4,73,0.00,,,0.00,WUHU216HW,2013-02-13 23:00:00,
2013-02-13 18:05:00,36.4,28.5,29.25,WNW,293,0.4,0.4,73,0.00,,,0.00,WUHU216HW,2013-02-13 23:05:00,
2013-02-13 18:30:00,35.5,27.9,29.27,WNW,293,0.0,0.0,74,0.00,,,0.00,WUHU216HW,2013-02-13 23:30:00,
2013-02-13 18:35:00,35.5,27.9,29.27,WNW,293,0.0,0.0,74,0.00,,,0.00,WUHU216HW,2013-02-13 23:35:00,
2013-02-13 19:00:00,34.7,27.5,29.27,WNW,293,0.0,0.0,75,0.00,,,0.00,WUHU216HW,2013-02-14 00:00:00,
2013-02-13 19:05:00,34.7,27.5,29.27,WNW,293,0.0,0.0,75,0.00,,,0.00,WUHU216HW,2013-02-14 00:05:00,
2013-02-13 19:30:00,34.2,27.6,29.28,WNW,293,0.0,0.0,77,0.00,,,0.00,WUHU216HW,2013-02-14 00:30:00,
2013-02-13 19:35:00,34.2,27.6,29.28,WNW,293,0.0,0.0,77,0.00,,,0.00,WUHU216HW,2013-02-14 00:35:00,
2013-02-13 20:00:00,33.8,27.6,29.29,WNW,293,0.0,0.0,78,0.00,,,0.00,WUHU216HW,2013-02-14 01:00:00,
2013-02-13 20:05:00,33.8,27.6,29.29,WNW,293,0.0,0.0,78,0.00,,,0.00,WUHU216HW,2013-02-14 01:05:00,
2013-02-13 20:30:00,33.8,27.9,29.30,WNW,293,0.0,0.0,79,0.00,,,0.00,WUHU216HW,2013-02-14 01:30:00,
2013-02-13 20:35:00,33.8,27.9,29.30,WNW,293,0.0,0.0,79,0.00,,,0.00,WUHU216HW,2013-02-14 01:35:00,
2013-02-13 21:00:00,33.8,28.3,29.31,WNW,293,0.0,0.0,80,0.00,,,0.00,WUHU216HW,2013-02-14 02:00:00,
2013-02-13 21:05:00,33.8,28.3,29.31,WNW,293,0.0,0.0,80,0.00,,,0.00,WUHU216HW,2013-02-14 02:05:00,
2013-02-13 21:30:00,33.8,28.3,29.32,WNW,293,0.0,0.0,80,0.00,,,0.00,WUHU216HW,2013-02-14 02:30:00,
2013-02-13 21:35:00,33.8,28.3,29.32,WNW,293,0.0,0.0,80,0.00,,,0.00,WUHU216HW,2013-02-14 02:35:00,
2013-02-13 22:00:00,33.8,28.3,29.32,WNW,293,0.0,0.0,80,0.00,,,0.00,WUHU216HW,2013-02-14 03:00:00,
2013-02-13 22:05:00,33.8,28.3,29.32,WNW,293,0.0,0.0,80,0.00,,,0.00,WUHU216HW,2013-02-14 03:05:00,
2013-02-13 22:30:00,33.5,27.9,29.33,WNW,293,0.0,0.0,80,0.00,,,0.00,WUHU216HW,2013-02-14 03:30:00,
2013-02-13 22:35:00,33.5,27.9,29.33,WNW,293,0.0,0.0,80,0.00,,,0.00,WUHU216HW,2013-02-14 03:35:00,
2013-02-13 23:00:00,33.1,27.9,29.34,WNW,293,1.1,1.1,81,0.00,,,0.00,WUHU216HW,2013-02-14 04:00:00,
2013-02-13 23:05:00,33.1,27.9,29.34,WNW,293,1.1,1.1,81,0.00,,,0.00,WUHU216HW,2013-02-14 04:05:00,
2013-02-13 23:30:00,33.5,28.3,29.34,WNW,293,0.0,0.0,81,0.00,,,0.00,WUHU216HW,2013-02-14 04:30:00,
2013-02-13 23:35:00,33.5,28.3,29.34,WNW,293,0.0,0.0,81,0.00,,,0.00,WUHU216HW,2013-02-14 04:35:00,